TimePST,TemperatureF,Dew PointF,Humidity,Sea Level PressureIn,VisibilityMPH,Wind Direction,Wind SpeedMPH,Gust SpeedMPH,PrecipitationIn,Events,Conditions,WindDirDegrees,DateUTC
12:52 AM,34.0,23.0,64,30.00,-9999.0,West,11.5,-,N/A,,Unknown,260,2013-11-03 07:52:00
1:52 AM,32.0,23.0,69,30.01,-9999.0,WNW,8.1,-,N/A,,Unknown,300,2013-11-03 08:52:00
1:52 AM,28.9,23.0,78,30.02,-9999.0,South,10.4,-,N/A,,Unknown,190,2013-11-03 09:52:00
2:52 AM,27.0,21.9,81,30.03,-9999.0,SSE,4.6,-,N/A,,Unknown,160,2013-11-03 10:52:00
3:52 AM,27.0,21.9,81,30.04,-9999.0,SSW,8.1,-,N/A,,Unknown,200,2013-11-03 11:52:00
4:52 AM,28.0,21.9,78,30.04,-9999.0,SSW,8.1,-,N/A,,Unknown,200,2013-11-03 12:52:00
5:52 AM,28.9,21.9,75,30.04,-9999.0,South,6.9,-,N/A,,Unknown,180,2013-11-03 13:52:00
6:52 AM,30.9,21.9,69,30.04,-9999.0,SSW,12.7,-,N/A,,Unknown,210,2013-11-03 14:52:00
7:52 AM,34.0,23.0,64,30.05,-9999.0,SW,12.7,-,N/A,,Unknown,230,2013-11-03 15:52:00
8:52 AM,37.0,21.9,54,30.06,-9999.0,SW,16.1,-,N/A,,Unknown,220,2013-11-03 16:52:00
9:52 AM,39.0,23.0,53,30.06,-9999.0,SW,13.8,-,N/A,,Unknown,220,2013-11-03 17:52:00
10:52 AM,39.9,21.9,49,30.08,-9999.0,WSW,10.4,-,N/A,,Unknown,250,2013-11-03 18:52:00
11:52 AM,39.9,21.0,47,30.07,-9999.0,WSW,9.2,-,N/A,,Unknown,250,2013-11-03 19:52:00
12:15 PM,41.0,21.0,45,30.02,-9999.0,WNW,13.8,-,N/A,,Unknown,300,2013-11-03 20:15:00
12:52 PM,42.1,23.0,47,30.06,-9999.0,WNW,10.4,-,N/A,,Unknown,300,2013-11-03 20:52:00
1:52 PM,43.0,21.9,43,30.06,-9999.0,WSW,9.2,-,N/A,,Unknown,250,2013-11-03 21:52:00
2:52 PM,44.1,16.0,32,30.06,-9999.0,WSW,12.7,-,N/A,,Unknown,240,2013-11-03 22:52:00
3:52 PM,39.9,17.1,40,30.07,-9999.0,West,8.1,-,N/A,,Unknown,280,2013-11-03 23:52:00
4:52 PM,37.0,17.1,44,30.06,-9999.0,Calm,Calm,-,N/A,,Unknown,0,2013-11-04 00:52:00
5:52 PM,33.1,21.0,61,30.08,-9999.0,SSW,3.5,-,N/A,,Unknown,210,2013-11-04 01:52:00
6:52 PM,34.0,21.9,61,30.08,-9999.0,SSW,4.6,-,N/A,,Unknown,200,2013-11-04 02:52:00
7:52 PM,30.9,21.9,69,30.08,-9999.0,South,5.8,-,N/A,,Unknown,190,2013-11-04 03:52:00
8:52 PM,30.9,23.0,72,30.08,-9999.0,Calm,Calm,-,N/A,,Unknown,0,2013-11-04 04:52:00
9:52 PM,28.9,21.0,72,30.09,-9999.0,SSE,3.5,-,N/A,,Unknown,160,2013-11-04 05:52:00
10:52 PM,30.9,19.9,64,30.07,-9999.0,West,4.6,-,N/A,,Unknown,280,2013-11-04 06:52:00